FW2861 Weather Reports


Display with metric or nautical units.
time (UTC)temp
F
wind
direction
speed
MPH
gust
MPH
rain 1hr
in
rain 24hr
in
rain mn
in
humidity
%
barometer
mb
20260508194648 62 217 3.0 8.0 0.00 0.00 0.00 36 1006.2
20260508194146 63 199 2.0 8.0 0.00 0.00 0.00 35 1006.1
20260508193647 63 295 2.0 8.0 0.00 0.00 0.00 35 1006.1
20260508193145 63 271 3.0 8.0 0.00 0.00 0.00 35 1006.1
20260508192645 63 253 3.0 8.0 0.00 0.00 0.00 35 1006.1
20260508192143 62 106 3.0 11.0 0.00 0.00 0.00 35 1006.1
20260508191640 62 240 4.0 11.0 0.00 0.00 0.00 34 1006.1
20260508191140 62 190 3.0 7.0 0.00 0.00 0.00 35 1006.0
20260508190640 63 179 3.0 9.0 0.00 0.00 0.00 34 1006.1
20260508190140 63 152 2.0 9.0 0.00 0.00 0.00 34 1006.2
20260508185641 63 292 2.0 8.0 0.00 0.00 0.00 36 1006.2
20260508185141 63 197 2.0 9.0 0.00 0.00 0.00 35 1006.2
20260508184135 62 53 3.0 10.0 0.00 0.00 0.00 34 1006.2
20260508183637 62 251 3.0 11.0 0.00 0.00 0.00 34 1006.1
20260508183137 62 229 3.0 11.0 0.00 0.00 0.00 35 1006.1
20260508182633 62 261 3.0 10.0 0.00 0.00 0.00 35 1006.2
20260508182135 62 156 3.0 11.0 0.00 0.00 0.00 36 1006.1
20260508181634 62 263 4.0 11.0 0.00 0.00 0.00 35 1006.1
20260508181134 62 52 4.0 10.0 0.00 0.00 0.00 35 1006.1
20260508180635 62 254 4.0 10.0 0.00 0.00 0.00 35 1006.1
20260508180134 62 324 3.0 10.0 0.00 0.00 0.00 34 1006.2
20260508175634 62 241 4.0 10.0 0.00 0.00 0.00 35 1006.0
20260508175130 62 232 3.0 10.0 0.00 0.00 0.00 35 1006.1
20260508174627 62 229 3.0 10.0 0.00 0.00 0.00 35 1006.1
20260508173628 62 249 3.0 10.0 0.00 0.00 0.00 36 1006.2
20260508173128 61 222 4.0 12.0 0.00 0.00 0.00 37 1006.1
20260508172628 61 252 4.0 12.0 0.00 0.00 0.00 37 1006.1
20260508172129 62 230 4.0 11.0 0.00 0.00 0.00 36 1006.2
20260508171628 63 236 4.0 12.0 0.00 0.00 0.00 35 1006.2
20260508171129 62 242 4.0 12.0 0.00 0.00 0.00 35 1006.3
20260508170629 61 184 4.0 9.0 0.00 0.00 0.00 37 1006.1
20260508170128 61 225 4.0 14.0 0.00 0.00 0.00 36 1006.3
20260508165630 60 288 4.0 14.0 0.00 0.00 0.00 36 1006.2
20260508165129 60 245 4.0 12.0 0.00 0.00 0.00 36 1006.1
20260508164629 60 245 4.0 11.0 0.00 0.00 0.00 36 1006.2
20260508164125 60 203 3.0 11.0 0.00 0.00 0.00 36 1006.3
20260508163625 61 264 3.0 11.0 0.00 0.00 0.00 36 1006.3
20260508163124 61 172 4.0 11.0 0.00 0.00 0.00 35 1006.4
20260508162624 62 255 4.0 9.0 0.00 0.00 0.00 35 1006.4
20260508161623 62 299 3.0 9.0 0.00 0.00 0.00 36 1006.5
20260508161122 63 171 2.0 6.0 0.00 0.00 0.00 35 1006.6
20260508160624 62 222 3.0 10.0 0.00 0.00 0.00 36 1006.6
20260508155623 60 268 5.0 11.0 0.00 0.00 0.00 37 1006.6
20260508155123 60 205 4.0 13.0 0.00 0.00 0.00 36 1006.8
20260508154622 61 259 4.0 13.0 0.00 0.00 0.00 36 1006.8
20260508154117 61 250 4.0 13.0 0.00 0.00 0.00 35 1006.9
20260508153116 60 0 3.0 9.0 0.00 0.00 0.00 36 1007.0
20260508152615 60 246 4.0 10.0 0.00 0.00 0.00 36 1006.9
20260508152112 60 172 4.0 10.0 0.00 0.00 0.00 35 1007.0
20260508151613 60 318 3.0 10.0 0.00 0.00 0.00 35 1007.0
20260508151113 61 133 2.0 9.0 0.00 0.00 0.00 36 1007.1
20260508150612 61 0 2.0 9.0 0.00 0.00 0.00 36 1007.1
20260508145613 60 243 4.0 12.0 0.00 0.00 0.00 35 1007.2
20260508145113 60 257 3.0 12.0 0.00 0.00 0.00 36 1007.2
20260508144608 60 161 2.0 7.0 0.00 0.00 0.00 37 1007.2
20260508143612 60 260 2.0 9.0 0.00 0.00 0.00 38 1007.2
20260508142606 60 256 2.0 9.0 0.00 0.00 0.00 37 1007.3
20260508142107 60 303 2.0 9.0 0.00 0.00 0.00 38 1007.3
20260508141106 59 235 3.0 7.0 0.00 0.00 0.00 39 1007.5
20260508140106 59 355 2.0 7.0 0.00 0.00 0.00 39 1007.6
20260508135605 58 238 2.0 8.0 0.00 0.00 0.00 38 1007.6
20260508135100 58 11 2.0 8.0 0.00 0.00 0.00 39 1007.6
20260508134601 58 201 2.0 7.0 0.00 0.00 0.00 38 1007.7
20260508134101 58 289 2.0 7.0 0.00 0.00 0.00 40 1007.7
20260508133600 57 244 3.0 8.0 0.00 0.00 0.00 40 1007.8
20260508133101 57 252 3.0 8.0 0.00 0.00 0.00 40 1007.7
20260508132600 57 212 2.0 7.0 0.00 0.00 0.00 40 1007.8
20260508132100 57 295 2.0 6.0 0.00 0.00 0.00 41 1007.8
20260508131601 57 264 2.0 5.0 0.00 0.00 0.00 40 1007.8
20260508130601 56 240 2.0 8.0 0.00 0.00 0.00 42 1007.8
20260508130100 56 91 2.0 8.0 0.00 0.00 0.00 41 1007.8
20260508125600 56 215 2.0 6.0 0.00 0.00 0.00 42 1007.8
20260508125056 56 223 2.0 5.0 0.00 0.00 0.00 42 1007.8
20260508124554 56 207 2.0 5.0 0.00 0.00 0.00 42 1007.9
20260508124053 55 109 2.0 5.0 0.00 0.00 0.00 44 1007.8
20260508123552 55 222 2.0 5.0 0.00 0.00 0.00 45 1007.9
20260508123051 55 270 2.0 5.0 0.00 0.00 0.00 45 1007.9
20260508122551 54 341 2.0 5.0 0.00 0.00 0.00 44 1007.9
20260508122051 54 237 2.0 6.0 0.00 0.00 0.00 46 1008.0
20260508121551 54 0 2.0 6.0 0.00 0.00 0.00 45 1008.0
20260508121052 54 238 1.0 4.0 0.00 0.00 0.00 45 1008.0
20260508120552 54 154 2.0 7.0 0.00 0.00 0.00 45 1008.0
20260508120050 53 265 2.0 7.0 0.00 0.00 0.00 46 1008.0
20260508115550 53 0 2.0 6.0 0.00 0.00 0.00 47 1008.0
20260508115050 53 251 2.0 6.0 0.00 0.00 0.00 48 1008.1
20260508114549 52 265 2.0 6.0 0.00 0.00 0.00 47 1008.0
20260508114045 52 259 2.0 6.0 0.00 0.00 0.00 48 1008.1
20260508113545 51 236 2.0 5.0 0.00 0.00 0.00 48 1008.0
20260508113042 51 273 2.0 6.0 0.00 0.00 0.00 49 1008.0
20260508112541 50 0 3.0 7.0 0.00 0.00 0.00 49 1007.9
20260508111543 49 261 2.0 7.0 0.00 0.00 0.00 52 1007.8
20260508111043 49 0 1.0 4.0 0.00 0.00 0.00 53 1007.8
20260508110543 47 242 1.0 3.0 0.00 0.00 0.00 55 1007.7
20260508110042 46 0 1.0 3.0 0.00 0.00 0.00 60 1007.7
20260508105542 46 277 1.0 4.0 0.00 0.00 0.00 63 1007.6
20260508104540 46 248 1.0 4.0 0.00 0.00 0.00 62 1007.4
20260508104041 46 277 1.0 3.0 0.00 0.00 0.00 63 1007.4
20260508103541 45 264 2.0 4.0 0.00 0.00 0.00 63 1007.4
20260508103039 45 273 2.0 4.0 0.00 0.00 0.00 62 1007.3
20260508102541 45 269 2.0 4.0 0.00 0.00 0.00 63 1007.2
20260508100539 45 254 2.0 4.0 0.00 0.00 0.00 59 1007.2
20260508100039 45 252 2.0 4.0 0.00 0.00 0.00 58 1007.2
20260508095539 45 243 1.0 3.0 0.00 0.00 0.00 59 1007.1
20260508095038 45 0 1.0 4.0 0.00 0.00 0.00 58 1006.9
20260508094035 45 262 2.0 4.0 0.00 0.00 0.00 58 1006.9
20260508093536 45 0 1.0 4.0 0.00 0.00 0.00 58 1006.9
20260508093038 45 271 2.0 4.0 0.00 0.00 0.00 57 1006.8
20260508092539 45 277 2.0 5.0 0.00 0.00 0.00 57 1006.8
20260508092038 45 244 2.0 5.0 0.00 0.00 0.00 58 1006.8
20260508091538 45 237 2.0 4.0 0.00 0.00 0.00 57 1006.8
20260508091038 45 250 2.0 4.0 0.00 0.00 0.00 58 1006.8
20260508090032 45 267 2.0 8.0 0.00 0.00 0.00 58 1006.8
20260508084951 45 174 1.0 5.0 0.00 0.00 0.00 59 1006.7
20260508084450 45 0 1.0 7.0 0.00 0.00 0.00 59 1006.7
20260508083952 45 0 2.0 7.0 0.00 0.00 0.00 59 1006.7
20260508083450 45 263 2.0 7.0 0.00 0.00 0.00 59 1006.6
20260508082949 45 253 2.0 7.0 0.00 0.00 0.00 60 1006.5
20260508082448 45 0 2.0 4.0 0.00 0.00 0.00 61 1006.4
20260508081948 45 237 2.0 4.0 0.00 0.00 0.00 60 1006.4
20260508081448 45 262 2.0 4.0 0.00 0.00 0.00 61 1006.3
20260508080949 45 292 1.0 4.0 0.00 0.00 0.00 59 1006.2
20260508075950 45 288 2.0 6.0 0.00 0.00 0.00 59 1006.0
20260508075450 44 0 1.0 5.0 0.00 0.00 0.00 61 1005.9
20260508073947 44 0 1.0 4.0 0.00 0.00 0.00 66 1005.6
20260508073447 44 262 0.0 3.0 0.00 0.00 0.00 66 1005.4
20260508072946 44 0 1.0 2.0 0.00 0.00 0.00 63 1005.4
20260508072448 44 270 1.0 2.0 0.00 0.00 0.00 60 1005.3
20260508071946 45 259 0.0 2.0 0.00 0.00 0.00 61 1005.2
20260508071447 45 0 0.0 2.0 0.00 0.00 0.00 59 1005.2
20260508070945 45 0 0.0 2.0 0.00 0.00 0.00 58 1005.2
20260508070446 46 0 0.0 3.0 0.00 0.00 0.00 57 1005.2
20260508065946 46 0 0.0 3.0 0.00 0.00 0.00 56 1005.2
20260508065446 46 0 0.0 3.0 0.00 0.00 0.00 55 1005.3
20260508064946 47 0 0.0 3.0 0.00 0.00 0.00 56 1005.3
20260508064445 47 237 0.0 2.0 0.00 0.00 0.00 57 1005.2
20260508063941 47 0 0.0 2.0 0.00 0.00 0.00 56 1005.2
20260508063439 47 0 0.0 3.0 0.00 0.00 0.00 55 1005.3
20260508062938 48 0 0.0 3.0 0.00 0.00 0.00 55 1005.3
20260508061939 49 0 0.0 2.0 0.00 0.00 0.00 53 1005.2
20260508061438 49 0 0.0 5.0 0.00 0.00 0.00 53 1005.2
20260508060938 49 0 1.0 5.0 0.00 0.00 0.00 53 1005.3
20260508060439 49 268 1.0 5.0 0.00 0.00 0.00 54 1005.3
20260508055938 49 137 1.0 3.0 0.00 0.00 0.00 55 1005.3
20260508055433 49 124 0.0 3.0 0.00 0.00 0.00 54 1005.2
20260508054934 49 231 0.0 2.0 0.00 0.00 0.00 53 1005.2
20260508054432 50 0 0.0 4.0 0.00 0.00 0.00 51 1005.2
20260508053932 50 0 1.0 4.0 0.00 0.00 0.00 51 1005.2
20260508052932 50 82 1.0 5.0 0.00 0.00 0.00 51 1005.3
20260508051930 50 0 1.0 6.0 0.00 0.00 0.00 50 1005.3
20260508051430 51 332 1.0 6.0 0.00 0.00 0.00 49 1005.3
20260508050930 51 0 1.0 5.0 0.00 0.00 0.00 48 1005.3
20260508050432 51 68 1.0 4.0 0.00 0.00 0.00 48 1005.4
20260508045929 51 255 1.0 6.0 0.00 0.00 0.00 49 1005.4
20260508045427 51 0 2.0 6.0 0.00 0.00 0.00 48 1005.4
20260508044925 51 246 2.0 6.0 0.00 0.00 0.00 48 1005.4
20260508044424 51 248 1.0 5.0 0.00 0.00 0.00 47 1005.4
20260508043925 52 0 1.0 5.0 0.00 0.00 0.00 47 1005.4
20260508043424 52 0 1.0 5.0 0.00 0.00 0.00 47 1005.4
20260508042924 52 337 2.0 5.0 0.00 0.00 0.00 45 1005.4
20260508042422 52 214 2.0 5.0 0.00 0.00 0.00 46 1005.4
20260508041922 52 230 2.0 5.0 0.00 0.00 0.00 45 1005.4
20260508041423 52 0 2.0 7.0 0.00 0.00 0.00 46 1005.4
20260508040922 52 136 2.0 7.0 0.00 0.00 0.00 45 1005.4
20260508040423 53 270 2.0 6.0 0.00 0.00 0.00 45 1005.4
20260508035922 52 12 2.0 7.0 0.00 0.00 0.39 45 1005.4
20260508035420 52 248 2.0 7.0 0.00 0.00 0.39 46 1005.4
20260508034420 52 354 2.0 6.0 0.00 0.00 0.39 46 1005.4
20260508033917 52 284 1.0 6.0 0.00 0.00 0.39 46 1005.4
20260508033416 52 248 2.0 5.0 0.00 0.00 0.39 46 1005.3
20260508032918 53 237 2.0 6.0 0.00 0.00 0.39 45 1005.4
20260508032417 53 115 2.0 6.0 0.00 0.00 0.39 46 1005.4
20260508031916 53 244 2.0 5.0 0.00 0.00 0.39 45 1005.4
20260508031417 53 176 1.0 5.0 0.00 0.00 0.39 46 1005.5
20260508030917 53 263 1.0 6.0 0.00 0.00 0.39 46 1005.5
20260508030418 53 263 2.0 6.0 0.00 0.00 0.39 46 1005.6
20260508025415 53 241 2.0 6.0 0.00 0.00 0.39 46 1005.5
20260508024916 53 327 2.0 6.0 0.00 0.00 0.39 44 1005.5
20260508023913 54 246 2.0 6.0 0.00 0.00 0.39 44 1005.5
20260508023413 54 311 2.0 7.0 0.00 0.00 0.39 44 1005.4
20260508022913 54 268 2.0 7.0 0.00 0.00 0.39 44 1005.4
20260508022412 54 172 2.0 5.0 0.00 0.00 0.39 44 1005.5
20260508021911 54 267 1.0 5.0 0.00 0.00 0.39 45 1005.5
20260508020910 54 317 1.0 6.0 0.00 0.00 0.39 44 1005.6
20260508020410 54 0 1.0 7.0 0.00 0.00 0.39 44 1005.6
20260508015911 55 238 1.0 7.0 0.00 0.00 0.39 43 1005.5
20260508014407 55 237 2.0 5.0 0.00 0.00 0.39 42 1005.5
20260508013907 55 227 2.0 7.0 0.00 0.00 0.39 42 1005.5
20260508013406 55 254 2.0 7.0 0.00 0.00 0.39 42 1005.4
20260508012908 55 188 2.0 9.0 0.00 0.00 0.39 41 1005.3
20260508011907 56 163 2.0 8.0 0.00 0.00 0.39 41 1005.2
20260508010906 56 287 2.0 8.0 0.00 0.00 0.39 41 1005.0
20260508010404 56 154 1.0 5.0 0.00 0.00 0.39 41 1005.1
20260508005404 56 232 2.0 8.0 0.00 0.00 0.39 41 1004.8
20260508004903 56 296 2.0 9.0 0.00 0.00 0.39 40 1004.7
20260508004359 57 229 2.0 9.0 0.00 0.00 0.39 39 1004.5
20260508003859 57 213 2.0 8.0 0.00 0.00 0.39 40 1004.5
20260508003400 57 212 2.0 6.0 0.00 0.00 0.39 40 1004.4
20260508002859 57 0 2.0 7.0 0.00 0.00 0.39 39 1004.3
20260508002400 57 269 2.0 7.0 0.00 0.00 0.39 39 1004.3
20260508001900 57 257 2.0 7.0 0.00 0.00 0.39 39 1004.2
20260508001401 58 247 2.0 6.0 0.00 0.00 0.39 40 1004.1
20260507235858 58 240 2.0 9.0 0.00 0.00 0.39 38 1004.0
20260507235357 58 22 2.0 9.0 0.00 0.00 0.39 38 1004.0
20260507234855 59 285 2.0 7.0 0.00 0.00 0.39 38 1004.0
20260507234356 59 255 2.0 9.0 0.00 0.00 0.39 37 1003.9
20260507233855 59 224 2.0 9.0 0.00 0.00 0.39 37 1003.8
20260507233356 59 167 2.0 8.0 0.00 0.00 0.39 37 1003.8
20260507232855 60 106 1.0 5.0 0.00 0.00 0.39 38 1003.8
20260507232355 60 186 2.0 5.0 0.00 0.00 0.39 37 1003.7
20260507231856 60 243 2.0 9.0 0.00 0.00 0.39 36 1003.7
20260507231353 60 190 2.0 9.0 0.00 0.00 0.39 37 1003.6
20260507230853 60 228 2.0 6.0 0.00 0.00 0.39 38 1003.5
20260507230348 61 221 2.0 6.0 0.00 0.00 0.39 38 1003.5
20260507225846 61 112 2.0 6.0 0.00 0.00 0.39 36 1003.5
20260507225347 61 216 2.0 9.0 0.00 0.00 0.39 37 1003.4
20260507224341 61 247 2.0 9.0 0.00 0.00 0.39 35 1003.3
20260507223841 62 232 2.0 8.0 0.00 0.00 0.39 35 1003.2
20260507223341 62 206 3.0 9.0 0.00 0.00 0.39 36 1003.2
20260507222340 62 246 2.0 7.0 0.00 0.00 0.39 36 1003.1
20260507221839 62 0 2.0 7.0 0.00 0.00 0.39 38 1003.1
20260507220839 63 137 2.0 6.0 0.00 0.00 0.39 37 1003.1
20260507220338 63 0 2.0 5.0 0.00 0.00 0.39 36 1003.0
20260507215834 63 233 1.0 4.0 0.00 0.00 0.39 36 1003.0
20260507215335 63 334 2.0 6.0 0.00 0.00 0.39 35 1002.9
20260507214834 64 0 2.0 6.0 0.00 0.00 0.39 35 1002.9
20260507214335 64 302 2.0 5.0 0.00 0.00 0.39 37 1002.9
20260507213837 64 282 2.0 5.0 0.00 0.00 0.39 36 1002.8
20260507213335 64 76 1.0 6.0 0.00 0.00 0.39 36 1002.8
20260507212836 65 36 2.0 7.0 0.00 0.00 0.39 34 1002.8
20260507212336 65 137 2.0 7.0 0.00 0.00 0.39 33 1002.8
20260507211835 66 39 2.0 6.0 0.00 0.00 0.39 34 1002.8
20260507211334 66 136 2.0 6.0 0.00 0.00 0.39 33 1002.7
20260507210831 66 282 2.0 6.0 0.00 0.00 0.39 34 1002.8
20260507210327 65 180 2.0 6.0 0.00 0.00 0.39 33 1002.8
20260507205826 65 31 2.0 9.0 0.00 0.00 0.39 34 1002.8
20260507205325 66 255 2.0 9.0 0.00 0.00 0.39 32 1002.7
20260507204325 66 337 2.0 7.0 0.00 0.00 0.39 33 1002.7
20260507203825 66 0 2.0 7.0 0.00 0.00 0.39 33 1002.8
20260507202824 66 0 2.0 6.0 0.00 0.00 0.39 33 1002.8
20260507201824 66 0 2.0 8.0 0.00 0.00 0.39 33 1002.8
20260507201323 67 24 2.0 8.0 0.00 0.00 0.39 33 1002.7
20260507200823 67 127 2.0 7.0 0.00 0.00 0.39 31 1002.8
20260507200323 67 220 2.0 7.0 0.00 0.00 0.39 33 1002.7
20260507195819 67 291 2.0 5.0 0.00 0.00 0.39 33 1002.9
20260507195320 67 164 2.0 5.0 0.00 0.00 0.39 33 1002.9